QPF
0.07 0.07 0.06 0.05 0.05 0.05 0.07 0.08 0.08 0.09 0.09 0.05 0.02 0.02 0.03 0.03 0.03 0.03 0.03 0.02 0.02 0.02 0.01 0.01 0.01 0.01 0.01 0.01 0.01 0.01 0.01 0.01 0.02 0.03 0.03 0.04 0.04 0.04
0.07 0.08 0.06 0.04 0.05 0.04 0.05 0.07 0.07 0.08 0.07 0.05 0.04 0.02 0.02 0.03 0.03 0.03 0.02 0.01 0.02 0.01 0.01 0.01 0.01 0.01 0.01 0.01 0.01 0.00 0.00 0.01 0.01 0.01 0.01 0.02 0.03 0.04
0.06 0.07 0.06 0.06 0.06 0.05 0.06 0.07 0.07 0.07 0.06 0.05 0.05 0.06 0.05 0.04 0.04 0.04 0.02 0.02 0.02 0.01 0.01 0.01 0.01 0.01 0.01 0.01 0.00 0.00 0.00 0.00 0.00 0.00 0.01 0.01 0.02 0.04
0.05 0.06 0.06 0.07 0.06 0.05 0.07 0.08 0.08 0.09 0.08 0.07 0.08 0.08 0.09 0.06 0.05 0.04 0.03 0.02 0.02 0.02 0.01 0.01 0.01 0.01 0.01 0.01 0.00 0.00 0.00 0.00 0.00 0.00 0.01 0.01 0.01 0.02
0.05 0.05 0.06 0.08 0.06 0.05 0.05 0.06 0.07 0.07 0.09 0.07 0.05 0.08 0.09 0.07 0.07 0.05 0.04 0.03 0.02 0.02 0.02 0.01 0.01 0.01 0.01 0.01 0.01 0.01 0.01 0.01 0.01 0.01 0.01 0.01 0.01 0.01
0.04 0.05 0.06 0.06 0.07 0.07 0.06 0.07 0.08 0.08 0.09 0.07 0.05 0.06 0.08 0.07 0.07 0.05 0.05 0.05 0.03 0.03 0.03 0.02 0.01 0.02 0.01 0.01 0.01 0.02 0.02 0.02 0.02 0.02 0.02 0.01 0.01 0.01
0.06 0.07 0.07 0.08 0.09 0.07 0.06 0.07 0.07 0.07 0.06 0.06 0.06 0.07 0.06 0.06 0.06 0.05 0.05 0.06 0.06 0.05 0.06 0.04 0.03 0.02 0.02 0.02 0.02 0.03 0.03 0.03 0.03 0.03 0.03 0.02 0.01 0.01
0.07 0.08 0.07 0.07 0.07 0.07 0.06 0.06 0.07 0.06 0.06 0.06 0.06 0.06 0.06 0.07 0.07 0.07 0.07 0.08 0.08 0.06 0.07 0.06 0.06 0.05 0.04 0.03 0.04 0.04 0.04 0.05 0.05 0.04 0.03 0.02 0.01 0.01
0.07 0.07 0.05 0.06 0.08 0.07 0.06 0.05 0.03 0.03 0.04 0.05 0.06 0.06 0.07 0.08 0.08 0.07 0.08 0.08 0.08 0.07 0.08 0.06 0.05 0.05 0.04 0.04 0.05 0.05 0.06 0.06 0.05 0.03 0.01 0.01 0.01 0.01
0.05 0.06 0.06 0.08 0.07 0.06 0.07 0.05 0.04 0.03 0.03 0.03 0.03 0.04 0.05 0.06 0.06 0.06 0.08 0.08 0.08 0.07 0.07 0.05 0.04 0.04 0.04 0.05 0.05 0.05 0.05 0.05 0.03 0.01 0.01 0.00 0.01 0.01
0.03 0.04 0.04 0.05 0.07 0.07 0.08 0.07 0.05 0.04 0.04 0.04 0.03 0.03 0.03 0.03 0.04 0.06 0.06 0.06 0.04 0.04 0.04 0.04 0.03 0.03 0.04 0.05 0.05 0.06 0.05 0.03 0.03 0.01 0.01 0.01 0.01 0.00
0.05 0.04 0.04 0.05 0.06 0.06 0.07 0.07 0.05 0.05 0.07 0.05 0.03 0.03 0.02 0.02 0.03 0.04 0.06 0.06 0.05 0.05 0.05 0.05 0.04 0.04 0.04 0.04 0.03 0.03 0.03 0.03 0.03 0.02 0.02 0.01 0.01 0.00
0.04 0.05 0.05 0.05 0.04 0.04 0.04 0.04 0.04 0.07 0.10 0.08 0.05 0.04 0.03 0.03 0.02 0.03 0.04 0.06 0.06 0.05 0.05 0.05 0.04 0.04 0.04 0.03 0.03 0.02 0.02 0.02 0.02 0.02 0.03 0.02 0.01 0.01
0.04 0.05 0.06 0.07 0.06 0.05 0.04 0.04 0.05 0.06 0.07 0.07 0.06 0.05 0.05 0.04 0.05 0.04 0.03 0.04 0.04 0.04 0.04 0.04 0.04 0.03 0.02 0.02 0.02 0.02 0.02 0.02 0.02 0.02 0.03 0.03 0.02 0.02
0.03 0.04 0.05 0.06 0.07 0.05 0.04 0.05 0.06 0.06 0.06 0.05 0.04 0.04 0.04 0.04 0.06 0.07 0.06 0.05 0.05 0.04 0.04 0.04 0.04 0.04 0.03 0.02 0.02 0.02 0.02 0.02 0.02 0.02 0.02 0.02 0.02 0.02
0.01 0.02 0.03 0.04 0.04 0.04 0.04 0.04 0.04 0.04 0.05 0.04 0.04 0.05 0.07 0.07 0.07 0.07 0.08 0.07 0.06 0.05 0.05 0.05 0.04 0.04 0.03 0.02 0.02 0.02 0.02 0.03 0.03 0.03 0.03 0.02 0.02 0.02
0.02 0.02 0.03 0.03 0.03 0.04 0.04 0.04 0.03 0.03 0.04 0.04 0.04 0.04 0.06 0.07 0.08 0.07 0.07 0.08 0.07 0.06 0.06 0.06 0.06 0.05 0.05 0.04 0.03 0.03 0.04 0.04 0.05 0.05 0.04 0.03 0.03 0.02
0.02 0.02 0.03 0.05 0.05 0.04 0.04 0.03 0.03 0.03 0.03 0.03 0.04 0.04 0.05 0.07 0.08 0.09 0.11 0.11 0.09 0.08 0.08 0.08 0.08 0.08 0.07 0.06 0.04 0.04 0.04 0.03 0.04 0.05 0.04 0.03 0.03 0.02
0.02 0.02 0.03 0.04 0.05 0.04 0.04 0.03 0.03 0.03 0.03 0.04 0.05 0.06 0.07 0.09 0.11 0.12 0.13 0.14 0.15 0.14 0.12 0.11 0.10 0.08 0.06 0.04 0.03 0.03 0.03 0.03 0.04 0.04 0.04 0.03 0.02 0.02
0.02 0.02 0.03 0.04 0.04 0.04 0.04 0.03 0.04 0.04 0.04 0.04 0.04 0.06 0.08 0.10 0.12 0.14 0.16 0.16 0.15 0.14 0.12 0.10 0.08 0.07 0.04 0.03 0.03 0.03 0.03 0.03 0.04 0.04 0.04 0.04 0.03 0.03
0.01 0.02 0.02 0.03 0.02 0.03 0.03 0.03 0.03 0.04 0.04 0.04 0.04 0.05 0.07 0.08 0.09 0.10 0.12 0.13 0.13 0.12 0.11 0.09 0.07 0.08 0.07 0.06 0.06 0.04 0.03 0.03 0.03 0.04 0.04 0.04 0.03 0.03
0.02 0.03 0.04 0.04 0.03 0.03 0.03 0.02 0.02 0.03 0.03 0.04 0.04 0.04 0.05 0.05 0.05 0.06 0.07 0.07 0.08 0.08 0.09 0.10 0.11 0.11 0.09 0.07 0.06 0.05 0.04 0.04 0.04 0.04 0.05 0.05 0.03 0.03
0.03 0.03 0.03 0.03 0.03 0.02 0.02 0.03 0.03 0.03 0.03 0.03 0.03 0.03 0.04 0.05 0.05 0.05 0.05 0.06 0.07 0.07 0.07 0.07 0.08 0.10 0.11 0.10 0.09 0.07 0.06 0.05 0.05 0.04 0.04 0.04 0.05 0.04
MSLP
1011.59 1011.85 1012.14 1012.43 1012.69 1012.88 1012.97 1012.95 1012.82 1012.59 1012.29 1011.95 1011.62 1011.34 1011.13 1011.01 1010.99 1011.07 1011.24 1011.46 1011.73 1012.00 1012.26 1012.49 1012.67 1012.80 1012.88 1012.91 1012.92 1012.91 1012.89 1012.88 1012.89 1012.91 1012.94 1012.97 1012.99 1013.00
1010.87 1011.10 1011.37 1011.66 1011.95 1012.19 1012.36 1012.44 1012.40 1012.26 1012.04 1011.75 1011.44 1011.14 1010.88 1010.68 1010.57 1010.55 1010.61 1010.74 1010.93 1011.15 1011.39 1011.62 1011.82 1012.00 1012.13 1012.23 1012.30 1012.35 1012.39 1012.42 1012.46 1012.50 1012.54 1012.58 1012.62 1012.65
1010.20 1010.40 1010.65 1010.94 1011.25 1011.54 1011.78 1011.94 1012.00 1011.96 1011.82 1011.60 1011.32 1011.01 1010.72 1010.46 1010.25 1010.12 1010.07 1010.09 1010.18 1010.32 1010.50 1010.69 1010.89 1011.08 1011.25 1011.40 1011.52 1011.62 1011.70 1011.78 1011.85 1011.92 1012.00 1012.07 1012.14 1012.21
1009.60 1009.78 1010.02 1010.32 1010.64 1010.97 1011.26 1011.50 1011.65 1011.70 1011.64 1011.49 1011.26 1010.97 1010.66 1010.36 1010.08 1009.85 1009.69 1009.60 1009.58 1009.63 1009.72 1009.86 1010.03 1010.20 1010.37 1010.52 1010.67 1010.80 1010.91 1011.02 1011.12 1011.23 1011.34 1011.46 1011.58 1011.70
1009.07 1009.25 1009.49 1009.78 1010.11 1010.47 1010.80 1011.10 1011.32 1011.46 1011.48 1011.41 1011.23 1010.99 1010.69 1010.37 1010.05 1009.76 1009.52 1009.33 1009.22 1009.17 1009.18 1009.24 1009.35 1009.47 1009.60 1009.74 1009.87 1010.00 1010.12 1010.24 1010.36 1010.50 1010.64 1010.80 1010.96 1011.14
1008.60 1008.78 1009.02 1009.31 1009.64 1010.01 1010.38 1010.71 1010.99 1011.18 1011.28 1011.28 1011.18 1010.99 1010.74 1010.44 1010.12 1009.82 1009.53 1009.29 1009.11 1008.99 1008.92 1008.90 1008.93 1008.99 1009.06 1009.15 1009.24 1009.33 1009.43 1009.53 1009.65 1009.79 1009.95 1010.13 1010.34 1010.56
1008.16 1008.34 1008.58 1008.87 1009.20 1009.57 1009.94 1010.28 1010.59 1010.83 1010.98 1011.05 1011.02 1010.91 1010.73 1010.49 1010.22 1009.94 1009.67 1009.42 1009.21 1009.04 1008.92 1008.84 1008.79 1008.77 1008.77 1008.79 1008.81 1008.84 1008.89 1008.96 1009.05 1009.17 1009.32 1009.52 1009.74 1009.99
1007.71 1007.91 1008.16 1008.44 1008.76 1009.11 1009.46 1009.80 1010.10 1010.36 1010.55 1010.67 1010.71 1010.68 1010.59 1010.44 1010.26 1010.05 1009.83 1009.62 1009.42 1009.24 1009.09 1008.97 1008.86 1008.77 1008.70 1008.64 1008.58 1008.55 1008.53 1008.54 1008.58 1008.67 1008.80 1008.98 1009.20 1009.45
1007.27 1007.49 1007.74 1008.02 1008.32 1008.64 1008.96 1009.26 1009.55 1009.79 1010.00 1010.15 1010.25 1010.30 1010.29 1010.25 1010.17 1010.06 1009.92 1009.78 1009.63 1009.48 1009.33 1009.18 1009.04 1008.90 1008.76 1008.63 1008.51 1008.40 1008.31 1008.26 1008.25 1008.28 1008.38 1008.53 1008.72 1008.97
1006.86 1007.11 1007.37 1007.64 1007.92 1008.20 1008.48 1008.73 1008.97 1009.19 1009.38 1009.54 1009.67 1009.78 1009.86 1009.91 1009.93 1009.92 1009.88 1009.82 1009.73 1009.63 1009.50 1009.36 1009.20 1009.03 1008.86 1008.68 1008.50 1008.33 1008.19 1008.09 1008.02 1008.01 1008.06 1008.17 1008.34 1008.56
1006.54 1006.81 1007.08 1007.36 1007.62 1007.86 1008.09 1008.29 1008.47 1008.64 1008.79 1008.94 1009.08 1009.22 1009.35 1009.47 1009.57 1009.64 1009.69 1009.71 1009.68 1009.63 1009.53 1009.41 1009.26 1009.08 1008.89 1008.69 1008.49 1008.29 1008.12 1007.97 1007.87 1007.83 1007.84 1007.91 1008.05 1008.24
1006.35 1006.64 1006.93 1007.20 1007.45 1007.67 1007.85 1008.00 1008.12 1008.23 1008.34 1008.45 1008.58 1008.72 1008.87 1009.02 1009.17 1009.30 1009.40 1009.47 1009.49 1009.48 1009.41 1009.32 1009.18 1009.02 1008.83 1008.63 1008.43 1008.23 1008.05 1007.89 1007.77 1007.70 1007.69 1007.73 1007.84 1008.01
1006.29 1006.60 1006.91 1007.19 1007.44 1007.64 1007.78 1007.89 1007.96 1008.02 1008.08 1008.15 1008.24 1008.36 1008.50 1008.66 1008.81 1008.96 1009.08 1009.17 1009.22 1009.22 1009.18 1009.10 1008.99 1008.84 1008.68 1008.51 1008.32 1008.14 1007.97 1007.83 1007.71 1007.63 1007.60 1007.63 1007.72 1007.86
1006.35 1006.68 1007.00 1007.29 1007.54 1007.73 1007.87 1007.95 1007.99 1008.02 1008.04 1008.07 1008.12 1008.21 1008.32 1008.44 1008.58 1008.71 1008.82 1008.90 1008.94 1008.95 1008.91 1008.84 1008.75 1008.63 1008.49 1008.35 1008.20 1008.05 1007.91 1007.78 1007.67 1007.60 1007.56 1007.58 1007.65 1007.78
1006.48 1006.81 1007.14 1007.44 1007.70 1007.90 1008.04 1008.12 1008.15 1008.16 1008.16 1008.17 1008.20 1008.25 1008.32 1008.41 1008.51 1008.60 1008.67 1008.72 1008.74 1008.73 1008.68 1008.62 1008.53 1008.43 1008.32 1008.21 1008.09 1007.97 1007.86 1007.75 1007.66 1007.59 1007.55 1007.56 1007.61 1007.72
1006.62 1006.93 1007.26 1007.57 1007.84 1008.05 1008.21 1008.31 1008.36 1008.39 1008.39 1008.40 1008.41 1008.44 1008.48 1008.53 1008.59 1008.63 1008.67 1008.68 1008.66 1008.62 1008.56 1008.49 1008.41 1008.32 1008.23 1008.13 1008.04 1007.94 1007.84 1007.74 1007.65 1007.58 1007.53 1007.52 1007.55 1007.64
1006.71 1007.00 1007.31 1007.61 1007.89 1008.13 1008.32 1008.45 1008.54 1008.60 1008.64 1008.66 1008.68 1008.70 1008.73 1008.76 1008.78 1008.79 1008.78 1008.75 1008.71 1008.64 1008.57 1008.49 1008.40 1008.31 1008.22 1008.13 1008.04 1007.94 1007.83 1007.73 1007.62 1007.53 1007.45 1007.42 1007.42 1007.49
1006.74 1006.99 1007.28 1007.57 1007.86 1008.12 1008.34 1008.52 1008.66 1008.76 1008.84 1008.89 1008.94 1008.97 1009.00 1009.01 1009.01 1009.00 1008.96 1008.92 1008.85 1008.77 1008.68 1008.59 1008.49 1008.39 1008.29 1008.18 1008.07 1007.95 1007.82 1007.68 1007.54 1007.41 1007.30 1007.23 1007.20 1007.23
1006.75 1006.96 1007.21 1007.49 1007.77 1008.05 1008.30 1008.52 1008.71 1008.86 1008.98 1009.08 1009.15 1009.19 1009.22 1009.24 1009.23 1009.20 1009.16 1009.10 1009.03 1008.94 1008.84 1008.74 1008.63 1008.51 1008.39 1008.25 1008.10 1007.94 1007.76 1007.57 1007.39 1007.20 1007.05 1006.93 1006.87 1006.87
1006.78 1006.96 1007.18 1007.44 1007.72 1008.00 1008.28 1008.53 1008.75 1008.94 1009.10 1009.22 1009.30 1009.36 1009.40 1009.40 1009.40 1009.37 1009.32 1009.26 1009.19 1009.10 1009.00 1008.89 1008.77 1008.64 1008.48 1008.30 1008.10 1007.88 1007.65 1007.40 1007.16 1006.92 1006.72 1006.56 1006.47 1006.44
1006.90 1007.04 1007.24 1007.49 1007.76 1008.05 1008.33 1008.60 1008.85 1009.05 1009.22 1009.35 1009.44 1009.50 1009.52 1009.52 1009.50 1009.47 1009.42 1009.36 1009.29 1009.21 1009.12 1009.00 1008.87 1008.71 1008.52 1008.30 1008.05 1007.77 1007.48 1007.17 1006.87 1006.59 1006.35 1006.16 1006.04 1005.99
1007.10 1007.24 1007.43 1007.67 1007.94 1008.23 1008.52 1008.80 1009.04 1009.25 1009.41 1009.52 1009.59 1009.62 1009.62 1009.60 1009.56 1009.51 1009.46 1009.40 1009.34 1009.26 1009.17 1009.05 1008.90 1008.72 1008.50 1008.24 1007.93 1007.61 1007.26 1006.91 1006.57 1006.26 1005.99 1005.78 1005.65 1005.59
1007.37 1007.51 1007.71 1007.96 1008.23 1008.53 1008.82 1009.09 1009.33 1009.52 1009.65 1009.74 1009.77 1009.76 1009.72 1009.66 1009.59 1009.52 1009.45 1009.39 1009.32 1009.25 1009.16 1009.04 1008.88 1008.67 1008.42 1008.12 1007.78 1007.42 1007.03 1006.65 1006.29 1005.96 1005.69 1005.48 1005.35 1005.29
Thickness
5762 5761 5760 5760 5761 5760 5758 5754 5745 5737 5738 5744 5747 5750 5749 5746 5742 5738 5735 5733 5730 5728 5725 5724 5722 5720 5719 5718 5716 5716 5716 5715 5715 5715 5714 5714 5713 5713
5761 5759 5758 5758 5758 5758 5757 5755 5751 5744 5738 5742 5745 5747 5746 5743 5739 5736 5733 5729 5727 5724 5721 5719 5718 5716 5714 5712 5711 5711 5710 5710 5710 5709 5709 5708 5708 5707
5758 5757 5756 5756 5754 5754 5754 5752 5749 5745 5738 5740 5743 5744 5742 5739 5735 5732 5729 5726 5723 5721 5718 5716 5714 5711 5709 5708 5706 5705 5705 5704 5703 5703 5703 5702 5701 5701
5755 5754 5753 5753 5751 5750 5749 5748 5746 5744 5738 5733 5735 5736 5735 5735 5732 5729 5727 5725 5721 5718 5715 5713 5710 5707 5705 5703 5701 5700 5699 5698 5697 5696 5696 5695 5694 5693
5753 5752 5751 5749 5747 5747 5745 5743 5742 5742 5738 5733 5731 5732 5731 5731 5727 5726 5725 5722 5719 5715 5711 5708 5706 5703 5700 5698 5696 5695 5694 5692 5691 5690 5689 5688 5687 5686
5751 5750 5749 5747 5745 5743 5741 5739 5737 5734 5733 5730 5728 5727 5726 5726 5723 5719 5716 5716 5715 5713 5708 5704 5701 5699 5696 5694 5692 5690 5688 5687 5685 5684 5682 5681 5680 5679
5746 5746 5746 5744 5742 5739 5738 5735 5732 5728 5726 5724 5722 5721 5719 5717 5715 5715 5711 5710 5709 5709 5704 5700 5696 5694 5692 5689 5687 5685 5683 5681 5679 5678 5676 5674 5673 5672
5740 5740 5740 5739 5737 5735 5733 5731 5728 5724 5721 5719 5718 5716 5714 5714 5712 5710 5707 5703 5700 5703 5699 5696 5695 5691 5689 5687 5685 5682 5679 5676 5674 5672 5670 5668 5666 5665
5737 5735 5735 5736 5732 5730 5727 5724 5723 5721 5719 5716 5713 5713 5711 5710 5707 5704 5702 5699 5697 5699 5695 5690 5690 5687 5687 5685 5682 5678 5675 5672 5669 5666 5664 5662 5660 5658
5733 5732 5729 5727 5726 5723 5720 5718 5716 5715 5714 5712 5711 5711 5710 5708 5705 5702 5699 5696 5695 5695 5692 5684 5684 5682 5682 5678 5676 5673 5670 5667 5664 5661 5658 5656 5654 5652
5729 5728 5725 5722 5720 5717 5714 5711 5710 5709 5709 5707 5706 5705 5704 5703 5700 5696 5693 5688 5686 5686 5687 5681 5680 5678 5675 5672 5669 5667 5664 5661 5658 5655 5653 5650 5648 5646
5721 5721 5719 5716 5713 5710 5707 5705 5703 5703 5702 5700 5698 5698 5697 5696 5695 5692 5689 5684 5681 5679 5681 5677 5674 5671 5667 5667 5664 5661 5658 5655 5652 5649 5647 5644 5642 5639
5713 5712 5710 5708 5705 5702 5700 5699 5697 5696 5694 5693 5692 5691 5690 5689 5688 5687 5685 5682 5677 5675 5677 5674 5669 5666 5663 5661 5659 5657 5654 5650 5646 5643 5640 5638 5636 5633
5704 5704 5702 5698 5695 5693 5692 5691 5689 5687 5686 5685 5684 5684 5683 5682 5682 5681 5679 5677 5676 5674 5672 5670 5665 5661 5657 5654 5653 5651 5649 5647 5643 5639 5635 5632 5629 5627
5695 5694 5691 5688 5686 5684 5684 5683 5680 5679 5678 5677 5676 5677 5678 5677 5676 5674 5672 5671 5669 5668 5667 5665 5662 5659 5655 5651 5648 5646 5643 5641 5639 5636 5632 5628 5624 5621
5683 5682 5680 5678 5676 5675 5675 5674 5672 5672 5672 5670 5670 5670 5670 5669 5667 5667 5664 5662 5660 5659 5659 5658 5656 5653 5649 5647 5643 5640 5638 5635 5633 5630 5627 5624 5621 5617
5670 5670 5669 5669 5667 5667 5666 5666 5665 5664 5663 5663 5662 5661 5661 5660 5659 5659 5656 5653 5651 5650 5649 5649 5648 5646 5644 5640 5636 5634 5632 5629 5627 5623 5620 5616 5614 5611
5658 5660 5660 5660 5659 5659 5657 5656 5656 5656 5656 5655 5654 5653 5652 5652 5650 5650 5647 5645 5642 5642 5641 5641 5638 5634 5631 5631 5631 5628 5625 5622 5619 5616 5613 5609 5606 5604
5649 5651 5651 5652 5651 5650 5649 5648 5647 5648 5647 5646 5645 5645 5644 5644 5642 5640 5638 5637 5634 5633 5633 5633 5630 5626 5621 5619 5621 5621 5616 5614 5611 5608 5605 5602 5599 5598
5644 5644 5644 5644 5644 5642 5641 5640 5640 5639 5638 5637 5637 5636 5636 5635 5633 5632 5630 5629 5626 5624 5624 5624 5622 5620 5616 5614 5612 5611 5610 5607 5604 5600 5597 5594 5591 5589
5638 5637 5637 5637 5636 5634 5632 5631 5630 5630 5629 5628 5627 5627 5627 5626 5625 5625 5623 5620 5618 5617 5615 5615 5615 5614 5612 5607 5603 5601 5601 5600 5599 5594 5591 5586 5583 5580
5629 5629 5630 5629 5628 5626 5624 5623 5622 5621 5621 5620 5619 5619 5618 5617 5617 5616 5615 5613 5612 5611 5610 5608 5607 5604 5601 5597 5595 5594 5592 5590 5589 5587 5584 5582 5577 5574
5621 5621 5621 5621 5619 5618 5616 5614 5613 5612 5612 5611 5610 5609 5609 5608 5608 5607 5606 5606 5604 5602 5601 5599 5597 5595 5592 5590 5587 5585 5583 5581 5580 5577 5574 5573 5571 5569